Location: Bohy
(49.9380°N, 13.5753°E)
Time: 21:04:18
(UTC+00:00)

USA 234 - Pass Details

Date: 19 May 2025
Orbit: 1097 x 1111 km, 123.0° (Epoch: 13 June)

Event Time Altitude Azimuth Distance (km) Brightness Sun altitude
Rises 22:29:50 0° 66° (ENE) 3,920 6.4 -19.7°
Reaches altitude 10° 22:32:22 10° 62° (ENE) 2,963 5.8 -19.8°
Maximum altitude 22:38:40 53° 349° (NNW) 1,339 4.1 -19.9°
Drops below altitude 10° 22:44:59 10° 275° (W) 2,969 5.6 -20.0°
Sets 22:47:31 0° 270° (W) 3,928 6.2 -20.0°
